Weather History for Jackson, WY

Change the Weather History Date:

Monday, January 28, 2013

  Actual Average Record
Temperature  
Mean Temperature 14 °F -  
Max Temperature 21 °F 26 °F 50 °F (2008)
Min Temperature 8 °F 0 °F -33 °F (1980)
Degree Days  
Heating Degree Days 50    
Moisture  
Dew Point 12 °F    
Average Humidity 85    
Maximum Humidity 100    
Minimum Humidity 58    
Precipitation  
Precipitation 0.00 in - - ()
Sea Level Pressure  
Sea Level Pressure 29.76 in    
Wind  
Wind Speed 8 mph (SSW)    
Max Wind Speed 15 mph    
Max Gust Speed 18 mph    
Visibility 9 miles    
Events      
Averages and records for this station are not official NWS values.
T = Trace of Precipitation, MM = Missing Value Source: NWS Daily Summary

Daily Weather History Graph

Daily Weather History Graph

Search for Another Location

Airport:

Trip Planner

Search our weather history database for the weather conditions in past years. The results will help you decide how hot, cold, wet, or windy it might be!

Date:

Astronomy

Jan. 28, 2013 Rise Set
Actual Time 7:43 AM MST 5:29 PM MST
Civil Twilight 7:12 AM MST 6:00 PM MST
Nautical Twilight 6:37 AM MST 6:34 PM MST
Astronomical Twilight 6:04 AM MST 7:08 PM MST
Moon 7:33 PM MST (1/28) 8:06 AM MST (1/28)
Length of Visible Light 10h 47m
Length of Day
9h 46m
Full, 97% of the Moon is Illuminated
Jan 28
Full
Feb 3
Last Quarter
Feb 10
New
Feb 17
First Quarter
Feb 25
Full

Hourly Weather History & Observations

Time (MST) Temp. Windchill Dew Point Humidity Pressure Visibility Wind Dir Wind Speed Gust Speed Precip Events Conditions
12:35 AM 21.2 °F 8.3 °F 17.6 °F 86% 29.74 in 10.0 mi South 13.8 mph 18.4 mph N/A   Overcast
12:55 AM 19.4 °F 6.6 °F 17.6 °F 93% 29.73 in 10.0 mi South 12.7 mph - N/A   Overcast
1:15 AM 19.4 °F 10.4 °F 15.8 °F 86% 29.73 in 10.0 mi South 6.9 mph - N/A   Mostly Cloudy
1:35 AM 17.6 °F 8.2 °F 15.8 °F 93% 29.72 in 10.0 mi South 6.9 mph - N/A   Mostly Cloudy
1:55 AM 15.8 °F 2.1 °F 12.2 °F 86% 29.73 in 10.0 mi South 12.7 mph - N/A   Scattered Clouds
2:15 AM 15.8 °F 3.4 °F 12.2 °F 86% 29.74 in 10.0 mi South 10.4 mph - N/A   Clear
2:35 AM 17.6 °F 8.2 °F 12.2 °F 79% 29.75 in 10.0 mi South 6.9 mph - N/A   Mostly Cloudy
2:55 AM 17.6 °F 10.7 °F 14.0 °F 86% 29.75 in 10.0 mi South 4.6 mph - N/A   Overcast
3:15 AM 17.6 °F 8.2 °F 14.0 °F 86% 29.75 in 10.0 mi South 6.9 mph - N/A   Overcast
3:35 AM 19.4 °F - 15.8 °F 86% 29.75 in 10.0 mi Calm Calm - N/A   Overcast
3:55 AM 19.4 °F - 14.0 °F 80% 29.75 in 10.0 mi Calm Calm - N/A   Overcast
4:35 AM 17.6 °F - 14.0 °F 86% 29.76 in 10.0 mi Calm Calm - N/A   Mostly Cloudy
4:55 AM 15.8 °F 8.6 °F 14.0 °F 93% 29.76 in 9.0 mi South 4.6 mph - N/A   Overcast
5:35 AM 17.6 °F 8.2 °F 15.8 °F 93% 29.76 in 10.0 mi WSW 6.9 mph - N/A   Overcast
5:55 AM 15.8 °F 6.1 °F 14.0 °F 93% 29.76 in 10.0 mi WSW 6.9 mph - N/A   Overcast
6:15 AM 15.8 °F 5.1 °F 14.0 °F 93% 29.76 in 10.0 mi WSW 8.1 mph - N/A   Overcast
6:35 AM 15.8 °F 2.7 °F 14.0 °F 93% 29.76 in 10.0 mi WSW 11.5 mph - N/A   Overcast
6:55 AM 15.8 °F 3.4 °F 14.0 °F 93% 29.76 in 10.0 mi SW 10.4 mph - N/A   Overcast
7:00 AM 15.8 °F 4.2 °F 14.0 °F 93% 29.76 in 10.0 mi WSW 9.2 mph - N/A   Mostly Cloudy
7:15 AM 15.8 °F 2.7 °F 14.0 °F 93% 29.76 in 10.0 mi WSW 11.5 mph - N/A   Mostly Cloudy
7:55 AM 15.8 °F 4.2 °F 14.0 °F 93% 29.77 in 10.0 mi SW 9.2 mph - N/A   Mostly Cloudy
8:55 AM 17.6 °F 9.3 °F 14.0 °F 86% 29.77 in 10.0 mi SSW 5.8 mph - N/A   Mostly Cloudy
9:55 AM 17.6 °F 5.0 °F 14.0 °F 86% 29.78 in 10.0 mi South 11.5 mph - N/A   Scattered Clouds
10:51 AM 19.4 °F 5.5 °F 15.8 °F 86% 29.78 in 10.0 mi South 15.0 mph - N/A   Scattered Clouds
11:58 AM 21.2 °F 7.8 °F 15.8 °F 80% 29.78 in 8.0 mi South 15.0 mph - N/A   Mostly Cloudy
12:51 PM 21.2 °F 8.9 °F 15.8 °F 80% 29.76 in 10.0 mi South 12.7 mph - N/A   Mostly Cloudy
1:51 PM 21.2 °F 10.1 °F 12.2 °F 68% 29.75 in 10.0 mi South 10.4 mph - N/A   Mostly Cloudy
2:51 PM 21.2 °F 9.5 °F 10.4 °F 63% 29.75 in 10.0 mi South 11.5 mph - N/A   Mostly Cloudy
3:51 PM 21.2 °F 10.1 °F 8.6 °F 58% 29.77 in 9.0 mi SW 10.4 mph - N/A   Mostly Cloudy
4:52 PM 17.6 °F 7.3 °F 8.6 °F 68% 29.79 in 10.0 mi SSW 8.1 mph - N/A   Mostly Cloudy
5:53 PM 17.6 °F 9.3 °F 8.6 °F 68% 29.80 in 10.0 mi SSW 5.8 mph - N/A   Overcast
6:51 PM 17.6 °F 12.3 °F 8.6 °F 68% 29.80 in 10.0 mi South 3.5 mph - N/A   Mostly Cloudy
7:52 PM 15.8 °F - 8.6 °F 73% 29.80 in 10.0 mi Calm Calm - N/A   Mostly Cloudy
8:51 PM 10.4 °F - 6.8 °F 85% 29.79 in 10.0 mi Calm Calm - N/A   Mostly Cloudy
8:56 PM 10.4 °F - 5.0 °F 79% 29.79 in 10.0 mi Calm Calm - N/A   Clear
9:15 PM 8.6 °F - 3.2 °F 79% 29.78 in 10.0 mi Calm Calm - N/A   Clear
9:35 PM 8.6 °F 2.0 °F 3.2 °F 79% 29.78 in 10.0 mi ESE 3.5 mph - N/A   Scattered Clouds
9:55 PM 8.6 °F 2.0 °F 5.0 °F 85% 29.78 in 10.0 mi SSE 3.5 mph - N/A   Overcast
10:15 PM 10.4 °F -1.5 °F 8.6 °F 92% 29.77 in 6.0 mi SW 8.1 mph - N/A   Overcast
10:35 PM 12.2 °F 2.9 °F 10.4 °F 92% 29.77 in 7.0 mi SSW 5.8 mph - N/A   Overcast
10:55 PM 10.4 °F 2.2 °F 8.6 °F 92% 29.77 in 5.0 mi SE 4.6 mph - N/A   Overcast
11:15 PM 10.4 °F - 8.6 °F 92% 29.76 in 2.5 mi Calm Calm - N/A   Mostly Cloudy
11:35 PM 14.0 °F 8.2 °F 12.2 °F 93% 29.75 in 1.5 mi SSW 3.5 mph - N/A   Overcast
11:55 PM 12.2 °F - 12.2 °F 100% 29.74 in 1.8 mi Calm Calm - N/A   Overcast